"Pseudo-MPEC" for 2013 XF5

Created 2014 Nov 17 18:43:25 UT using Find_Orb

Astrometry:
     K13X05F  C2003 01 16.27755 08 12 55.92 +08 27 56.6          19.0 Ro~12gK644
     K13X05F  C2003 01 16.30578 08 12 53.44 +08 27 38.4          19.6 Ro~12gK644
     K13X05F  C2003 01 16.33645 08 12 50.74 +08 27 19.2          19.6 Ro~12gK644
     K13X05F  C2003 01 26.33267 07 58 49.91 +06 53 16.1          19.1 Ro~12gK644
     K13X05F  C2003 01 26.35753 07 58 47.87 +06 53 04.0          19.5 Ro~12gK644
     K13X05F  C2003 01 26.39521 07 58 44.81 +06 52 45.2          19.5 Ro~12gK644
     K13X05F  C2005 07 15.39554 20 51 10.54 -03 48 12.4          21.0 Vc~12gK691
     K13X05F  C2005 07 15.41288 20 51 09.41 -03 48 03.9          20.8 Vc~12gK691
     K13X05F  C2005 07 15.43015 20 51 08.28 -03 47 55.8          20.9 Vc~12gK691
     K13X05F  C2009 10 17.12094 22 38 27.27 +38 00 06.6          18.9 Vr~12gK703
     K13X05F  C2009 10 17.12829 22 38 27.09 +38 00 02.0          19.3 Vr~12gK703
     K13X05F  C2009 10 17.13554 22 38 26.91 +37 59 56.4          19.6 Vr~12gK703
     K13X05F  C2013 12 03.11700 06 41 12.67 +40 12 00.8          18.9 Rv~0y6c461
     K13X05F  C2013 12 03.12568 06 41 12.03 +40 11 53.9          18.9 Rv~0y6c461
     K13X05F  C2013 12 03.13440 06 41 11.39 +40 11 46.9          18.8 Rv~0y6c461
     K13X05F  C2013 12 06.31105 06 37 13.35 +39 27 52.6          19.1 Ro~0y6c926
     K13X05F  C2013 12 06.32676 06 37 12.03 +39 27 39.2          19.0 Ro~0y6c926
     K13X05F  C2013 12 06.34622 06 37 10.42 +39 27 22.6          18.9 Ro~0y6c926
     K13X05F  C2013 12 12.49427 06 28 33.228+37 51 22.34         18.8 rL~0yOMF51
     K13X05F  C2013 12 12.50372 06 28 32.352+37 51 12.87         18.7 rL~0yOMF51
     K13X05F  C2013 12 14.56238 06 25 28.206+37 15 56.47         18.6 iL~0yOMF51
     K13X05F  C2013 12 14.57289 06 25 27.214+37 15 45.27         18.6 iL~0yOMF51
     K14A33S  C2013 12 25.35277 07 36 54.84 +23 32 02.8         x20.6 Vq~109OG96
     K14A33S  C2013 12 25.35838 07 36 54.35 +23 31 58.0         x20.1 Vq~109OG96
     K14A33S  C2013 12 25.36394 07 36 53.84 +23 31 52.7         x20.1 Vq~109OG96
     K14A33S  C2013 12 25.36950 07 36 53.40 +23 31 47.9         x20.4 Vq~109OG96
     K13X05F  C2013 12 27.17228 06 06 36.57 +33 12 58.5         x18.9 Ro~0yOM926
     K13X05F  C2013 12 27.18799 06 06 35.23 +33 12 38.7         x18.8 Ro~0yOM926
     K13X05F  C2013 12 27.21044 06 06 33.21 +33 12 11.9         x18.6 Ro~0yOM926
     K14A33S  C2014 01 02.19534 07 25 18.46 +21 33 59.5         x20.5 Vo~0zYM691
     K14A33S  C2014 01 02.21406 07 25 16.70 +21 33 43.2         x20.2 Vo~0zYM691
     K14A33S  C2014 01 02.22931 07 25 15.25 +21 33 29.3         x20.3 Vo~0zYM691
     K14A33S  C2014 01 09.18480 07 14 49.39 +19 48 46.5         x20.3 Vq~0zYMG96
     K14A33S  C2014 01 09.19534 07 14 48.44 +19 48 37.2         x20.3 Vq~0zYMG96
     K14A33S  C2014 01 09.20061 07 14 47.98 +19 48 32.5         x20.4 Vq~0zYMG96
     K14A33S  C2014 01 10.32293 07 13 09.888+19 31 55.99        x20.1 iL~109OF51
     K14A33S  C2014 01 10.33668 07 13 08.656+19 31 43.98        x20.1 iL~109OF51
     K13X05F  C2014 02 24.29748 05 51 55.985+17 32 15.55        x20.8 wL~114SF51
     K13X05F  C2014 02 24.31002 05 51 56.575+17 32 08.96        x20.7 wL~114SF51
     K13X05F  C2014 02 24.32255 05 51 57.169+17 32 02.33        x20.7 wL~114SF51
     K13X05F  C2014 02 24.33513 05 51 57.763+17 31 55.82        x20.6 wL~114SF51

Station data:
(461) University of Szeged, Piszkesteto Stn (Konkoly)  (N47.9181 E19.8943)  Hungary.
     0.60-m Schmidt.
(644) Palomar Mountain/NEAT (N33.35743 W116.85978)  US/Arizona.  1.2-m Oschin
    Schmidt.
(691) Steward Observatory, Kitt Peak-Spacewatch (N31.9581 W111.5990)  US/Arizona.
     0.91-m Spacewatch telescope.
(703) Catalina Sky Survey (N32.41712 W110.73264)  US/Arizona.   Observers E.
    J. Christensen, A. R. Gibbs, A. D. Grauer, R. E. Hill, J. A. Johnson, R. A.
    Kowalski, S. M. Larson, F. C. Shelly.  0.68 m Schmidt + CCD.
(926) Tenagra II Observatory, Nogales (N31.4621 W110.8791)  US/Arizona.
    0.36-m Schmidt-Cassegrain.
(F51) Pan-STARRS 1, Haleakala (N20.70733 W156.25591)  US/Hawaii.   Observers
    N. Primak, A. Schultz, S. Watters, J. Thiel, T. Goggia.  Measurer PS1
    Science Consortium.  1.8-m Ritchey-Chretien + CCD.
(G96) Mt. Lemmon Survey (N32.44287 W110.78872)  US/Arizona.   Observers E. J.
    Christensen, A. R. Gibbs, A. D. Grauer, R. E. Hill, J. A. Johnson, R. A.
    Kowalski, S. M. Larson, F. C. Shelly.  1.5-m reflector + CCD.

Orbital elements:  2013 XF5
   Perihelion 2013 Sep 29.858057 +/- 0.000493 TT = 20:35:36 (JD 2456565.358057)
Epoch 2013 Dec 14.0 TT = JDT 2456640.5   Earth MOID: 0.8526   Find_Orb
M  19.93288 +/- 0.00012
n   0.26526979 +/- 1.23e-8          Peri.  127.48695 +/- 0.00021
a   2.39889282 +/- 7.41e-8          Node   285.05303 +/- 0.000050
e   0.2614944 +/- 2.2e-7            Incl.   22.06357 +/- 0.000036
P   3.72                   H 17.4   G  0.15   U  0.9  
q 1.77159562 +/- 5.52e-7    Q 3.02619003 +/- 4.99e-7
22 of 41 observations 2003 Jan. 16-2013 Dec. 14; mean residual 0.337

Residuals in arcseconds:
030116 644 .698- .270+    131203 461 .090+ .087-    131227 926(.014+ .023+)   
030116 644 .245- .233-    131206 926 .029- .038+    140102 691( 20d+ 573'-)   
030116 644 .224+ .182-    131206 926 .218- .073+    140102 691( 20d+ 573'-)   
030126 644 .039- .228+    131206 926 .120- .192+    140102 691( 20d+ 573'-)   
030126 644 .283+ .522+    131212 F51 .016- .190-    140109 G96( 20d+ 533'-)   
030126 644 1.12+ .526+    131212 F51 .049+ .113-    140109 G96( 20d+ 533'-)   
050715 691 .182+ .083+    131214 F51 .041- .262-    140109 G96( 20d+ 533'-)   
050715 691 .114+ .229+    131214 F51 .068- .221-    140110 F51( 20d+ 527'-)   
050715 691 .035- 6.5m+    131225 G96( 20d+ 618'-)   140110 F51( 20d+ 527'-)   
091017 703 .344- .754+    131225 G96( 20d+ 618'-)   140224 F51(.186+ 1.3m+)   
091017 703 .302- .493+    131225 G96( 20d+ 618'-)   140224 F51(.160+ 3.5m+)   
091017 703 .287- .816-    131225 G96( 20d+ 618'-)   140224 F51(.182+ .031-)   
131203 461 .030- .282-    131227 926(.183- .140+)   140224 F51(.150+ .089+)   
131203 461 .018+ .157-    131227 926(.407+ .551-)   

Ephemerides (geocentric):
Date (UT)    RA              Dec         delta   r     elong  mag " sig PA
---- -- --  ------------   ------------  ------ ------ -----  --- ---- ---
2014 11 18  12 43 56.231   -23 31 33.72  3.4289 2.7360  39.3 23.0  0.3 113
2014 11 19  12 45 21.122   -23 43 45.24  3.4230 2.7382  39.8 23.0  0.3 112
2014 11 20  12 46 45.758   -23 55 56.00  3.4171 2.7403  40.4 23.0  0.4 112
2014 11 21  12 48 10.135   -24 08 05.99  3.4110 2.7424  41.0 23.0  0.4 112
2014 11 22  12 49 34.243   -24 20 15.16  3.4048 2.7446  41.5 23.0  0.4 112
2014 11 23  12 50 58.077   -24 32 23.49  3.3984 2.7467  42.1 23.0  0.4 112
2014 11 24  12 52 21.628   -24 44 30.94  3.3920 2.7488  42.7 23.0  0.4 112
2014 11 25  12 53 44.890   -24 56 37.47  3.3854 2.7509  43.3 23.0  0.4 112
2014 11 26  12 55 07.856   -25 08 43.06  3.3787 2.7530  43.8 23.0  0.4 111
2014 11 27  12 56 30.519   -25 20 47.68  3.3719 2.7551  44.4 23.0  0.4 111
2014 11 28  12 57 52.872   -25 32 51.28  3.3650 2.7571  45.0 23.0  0.4 111
2014 11 29  12 59 14.910   -25 44 53.84  3.3580 2.7592  45.6 23.0  0.4 111
2014 11 30  13 00 36.625   -25 56 55.34  3.3508 2.7613  46.2 23.0  0.4 111
2014 12 01  13 01 58.013   -26 08 55.75  3.3436 2.7633  46.8 23.0  0.4 111
2014 12 02  13 03 19.067   -26 20 55.06  3.3362 2.7654  47.4 23.0  0.4 110
2014 12 03  13 04 39.782   -26 32 53.23  3.3288 2.7674  48.0 23.0  0.4 110
2014 12 04  13 06 00.151   -26 44 50.27  3.3212 2.7694  48.6 23.0  0.4 110
2014 12 05  13 07 20.168   -26 56 46.14  3.3135 2.7715  49.2 23.0  0.4 110
2014 12 06  13 08 39.826   -27 08 40.85  3.3057 2.7735  49.8 23.0  0.4 110
2014 12 07  13 09 59.119   -27 20 34.37  3.2978 2.7755  50.4 23.0  0.4 109
2014 12 08  13 11 18.038   -27 32 26.69  3.2898 2.7775  51.0 23.0  0.4 109
2014 12 09  13 12 36.576   -27 44 17.80  3.2817 2.7795  51.6 23.0  0.4 109
2014 12 10  13 13 54.723   -27 56 07.68  3.2735 2.7815  52.2 23.0  0.4 109
2014 12 11  13 15 12.470   -28 07 56.31  3.2652 2.7835  52.8 23.0  0.4 109
2014 12 12  13 16 29.808   -28 19 43.68  3.2568 2.7854  53.5 23.0  0.4 109
2014 12 13  13 17 46.726   -28 31 29.76  3.2483 2.7874  54.1 23.0  0.4 108
2014 12 14  13 19 03.215   -28 43 14.55  3.2397 2.7893  54.7 23.0  0.4 108
2014 12 15  13 20 19.262   -28 54 58.00  3.2310 2.7913  55.3 23.0  0.4 108
2014 12 16  13 21 34.857   -29 06 40.11  3.2222 2.7932  56.0 23.0  0.4 108
2014 12 17  13 22 49.988   -29 18 20.85  3.2132 2.7952  56.6 23.0  0.4 108